Lid_Strength_Index
7 6 6 6 6 6 6 6 6 5 5 5 5 5 5 4 4 5 7 5 5 9 8 7 7 9 9 9 12 10 11 8 8 12 13 13 14 12 13 12 13 14 15 16 15 17 18 8 9 11 10 7 7 6
6 7 7 6 5 5 5 5 5 5 5 4 4 4 4 4 3 3 7 4 3 6 8 6 6 5 6 7 9 9 10 10 8 10 10 11 13 12 13 16 10 15 12 14 13 14 9 7 8 6 6 7 7 6
6 6 6 5 5 5 5 5 5 4 4 4 4 3 3 3 3 3 5 4 5 7 7 7 7 4 3 4 4 9 8 7 8 6 8 9 13 11 15 14 12 10 8 12 12 10 9 8 6 6 6 6 5 5
5 5 5 5 5 5 4 4 4 4 3 3 3 3 3 2 2 2 4 3 4 6 10 8 3 5 3 4 4 4 5 5 6 7 9 9 11 8 12 11 11 10 9 11 11 9 8 7 6 6 6 5 5 5
5 5 4 4 4 4 4 4 3 3 3 2 3 3 2 2 1 2 2 2 2 5 10 9 5 4 3 3 4 4 5 5 7 9 9 10 8 9 9 9 11 9 10 12 12 8 8 8 6 5 6 6 5 5
5 4 4 4 4 3 3 3 3 3 2 2 1 1 1 1 1 2 5 1 0 2 6 10 5 5 4 4 4 3 5 6 6 7 8 8 7 8 11 13 8 7 6 7 9 7 7 6 5 5 5 5 4 4
4 4 3 3 3 3 3 2 1 1 1 1 1 1 0 0 1 4 5 2 1 0 5 9 8 4 3 3 4 5 5 5 6 7 9 9 9 8 9 11 7 7 5 6 5 6 7 6 7 5 5 4 4 4
3 3 3 3 2 1 1 1 1 0 0 0 0 0 0 -0 0 3 2 0 -0 3 4 9 9 6 3 6 6 4 6 5 6 7 7 9 9 8 11 8 6 6 5 6 5 5 5 5 5 5 4 4 5 5
2 2 1 1 1 1 0 0 0 0 0 -0 -0 -0 0 1 3 3 -2 -2 -1 3 8 7 9 10 4 6 6 6 6 9 5 8 7 7 9 11 9 7 7 7 6 6 5 5 5 6 5 5 5 5 5 5
1 1 1 1 0 0 0 0 -0 -0 -0 -0 0 3 5 2 -2 -1 1 4 4 4 5 8 5 8 5 6 8 8 7 10 11 8 6 8 10 7 6 6 5 5 4 5 7 7 6 6 6 5 5 4 4 4
1 1 0 0 0 0 -0 -0 -0 -1 -0 1 3 4 1 -2 1 4 7 8 7 8 6 6 6 8 4 8 8 7 9 9 13 10 10 10 10 8 6 5 5 5 5 5 5 5 5 5 5 5 5 4 4 4
1 0 0 -0 -0 -0 -0 -1 -1 0 1 1 1 -0 1 4 6 8 9 7 8 9 7 8 7 6 6 4 7 8 10 9 13 8 11 12 8 6 5 5 5 5 5 5 4 4 4 4 4 4 4 4 4 3
-0 -0 -0 -0 -0 -1 -1 -1 -1 -1 -1 -0 3 5 6 6 11 11 11 10 10 8 7 7 8 7 6 5 7 7 9 11 7 11 13 10 7 6 6 4 4 4 4 4 4 4 4 4 4 4 4 3 3 3
-1 -1 -1 -1 -1 -1 -1 -1 -1 -1 1 5 6 10 9 10 9 9 8 8 7 6 6 6 8 8 7 8 8 9 8 8 12 14 13 9 8 7 5 5 4 5 5 4 4 4 4 4 4 4 4 3 3 4
-1 -1 -2 -1 -1 -1 -1 -1 -1 -1 3 6 6 11 8 6 6 6 5 6 5 5 6 7 7 7 9 9 8 9 10 12 11 11 10 8 7 6 6 5 4 4 4 4 4 4 4 4 4 4 3 3 3 3
-1 -1 -1 -1 -1 -1 -1 -1 -1 0 3 5 5 7 6 7 7 6 6 6 4 5 5 6 9 10 10 9 10 10 10 11 11 9 7 6 6 6 6 5 5 4 4 4 4 4 3 4 4 4 4 3 3 3
-1 1 -0 -1 -1 -1 -1 0 1 4 5 6 7 4 5 6 6 7 5 5 4 6 9 8 11 11 9 11 11 8 10 10 8 7 6 6 6 6 5 5 4 4 4 4 4 3 4 3 3 4 4 4 3 3
1 0 -1 -1 -1 -1 0 1 3 5 7 5 7 5 5 4 5 6 5 4 5 6 6 8 7 10 12 12 11 9 8 6 6 6 5 6 5 5 5 7 4 4 4 4 4 4 4 4 4 4 4 3 3 3
-0 -0 -0 -1 -0 2 3 3 3 7 6 5 4 4 4 4 3 3 4 3 4 4 5 7 9 11 10 8 8 7 6 6 6 6 5 5 5 4 4 4 4 4 4 4 4 4 4 3 4 3 3 3 4 3
-1 -1 -1 -1 -0 2 5 4 2 5 6 5 4 5 5 5 4 4 4 5 5 6 8 9 9 8 7 7 6 6 5 5 5 6 6 5 4 4 4 4 4 4 4 4 4 7 4 4 3 3 3 3 3 4
-0 -0 -0 0 1 2 3 4 5 4 5 6 4 5 6 5 5 6 6 4 6 8 9 7 6 5 5 4 4 4 4 4 5 5 6 5 4 4 4 3 3 3 4 4 4 5 5 4 3 3 3 3 3 3
0 -0 0 0 3 3 4 3 4 4 5 5 6 5 7 7 7 7 5 7 8 7 6 7 6 6 5 5 4 3 3 3 4 4 5 4 5 4 4 3 3 4 4 4 4 4 4 3 3 3 3 3 3 3
0 1 2 3 5 6 7 2 6 5 8 7 6 7 8 8 7 4 8 7 6 4 4 5 5 5 5 4 3 3 3 3 4 4 4 4 3 3 3 3 3 4 4 3 3 3 3 5 3 3 3 3 3 3
2 4 6 7 6 8 5 7 5 7 7 8 8 9 8 8 6 8 10 8 6 6 7 8 8 8 8 7 6 5 3 3 4 4 3 4 4 4 3 3 3 3 3 3 3 3 3 3 4 3 3 3 3 3
9 8 8 10 7 9 10 10 9 8 10 8 9 10 8 7 10 10 10 8 8 9 9 8 7 7 8 7 6 6 5 4 4 4 3 3 4 4 4 3 3 3 2 3 3 3 3 3 3 3 3 3 3 3
10 9 10 9 9 10 10 10 9 9 9 10 9 8 7 9 10 11 9 9 10 10 9 8 8 8 6 6 6 6 5 4 4 4 3 3 3 4 4 5 5 4 2 2 3 3 3 3 3 3 3 5 8 4
10 9 7 6 7 9 9 8 8 9 10 10 9 9 9 11 11 9 7 7 8 7 7 6 5 5 5 5 4 3 3 3 3 3 2 2 2 2 3 4 4 3 1 2 2 2 3 3 3 3 3 3 3 3
6 6 9 7 6 6 8 8 8 8 8 6 7 9 10 10 10 8 8 6 6 6 5 5 4 4 4 3 3 3 3 2 2 2 2 2 1 1 1 1 2 7 1 2 2 2 2 2 3 3 3 3 3 3
6 6 6 7 6 6 6 7 7 6 5 6 8 8 8 6 6 6 6 6 5 5 7 7 6 4 3 2 3 2 2 3 4 5 5 5 5 3 2 2 2 2 3 5 11 5 3 3 3 3 3 3 3 3
5 4 6 6 7 7 6 5 5 4 4 4 4 4 5 5 5 5 6 6 7 7 7 6 6 5 5 4 4 4 3 3 3 4 5 5 4 2 3 3 3 3 3 3 4 5 8 4 5 3 3 4 4 5
4 4 5 5 6 5 4 3 3 3 4 5 4 5 6 4 5 5 6 6 6 6 7 8 7 6 5 4 5 5 6 4 5 4 2 2 2 2 2 2 2 2 2 2 2 3 3 3 3 4 5 5 5 5
4 5 6 7 6 4 3 4 5 5 5 5 6 5 4 5 6 6 6 6 8 9 9 9 8 7 5 3 3 4 8 6 7 6 4 4 2 2 2 2 2 2 2 2 2 2 3 4 4 5 5 4 4 4
4 4 5 5 6 6 4 5 5 6 6 6 6 5 5 6 7 5 4 6 7 8 8 7 6 6 4 3 3 4 6 4 8 12 11 11 11 8 3 2 2 2 2 3 3 3 3 3 4 3 4 4 4 5